K4AMF Weather Reports


time (UTC)temp
C
wind
direction
speed
KPH
gust
KPH
rain 1hr
cm
rain 24hr
cm
rain mn
cm
humidity
%
barometer
mb
20260510122416 22 318 0.0 0.0 0.00 0.00 0.00 99 1016.6
20260510121913 22 331 0.0 0.0 0.00 0.00 0.00 99 1017.0
20260510121410 22 317 0.0 0.0 0.00 0.00 0.00 99 1016.7
20260510120908 22 329 0.0 0.0 0.00 0.00 0.00 99 1016.7
20260510120405 22 323 0.0 0.0 0.00 0.00 0.00 99 1016.7
20260510115901 21 323 0.0 0.0 0.00 0.00 0.00 99 1016.7
20260510115358 21 323 0.0 0.0 0.00 0.00 0.00 99 1016.4
20260510114854 21 323 0.0 0.0 0.00 0.00 0.00 99 1016.4
20260510114351 21 319 0.0 0.0 0.00 0.00 0.00 99 1016.3
20260510113851 21 318 0.0 0.0 0.00 0.00 0.00 99 1016.5
20260510113347 21 318 0.0 0.0 0.00 0.00 0.00 99 1016.2
20260510112844 21 318 0.0 0.0 0.00 0.00 0.00 99 1016.5
20260510112342 21 318 0.0 0.0 0.00 0.00 0.00 99 1016.3
20260510111837 21 319 0.0 0.0 0.00 0.00 0.00 99 1016.1
20260510111334 21 318 0.0 0.0 0.00 0.00 0.00 99 1015.9
20260510110833 21 318 0.0 0.0 0.00 0.00 0.00 99 1016.0
20260510110331 21 324 0.0 0.0 0.00 0.00 0.00 99 1016.0
20260510105827 21 325 0.0 0.0 0.00 0.00 0.00 99 1015.5
20260510105328 21 324 0.0 0.0 0.00 0.00 0.00 99 1015.6
20260510104824 21 324 0.0 0.0 0.00 0.00 0.00 99 1015.8
20260510104321 21 325 0.0 0.0 0.00 0.00 0.00 99 1015.7
20260510103817 21 322 0.0 0.0 0.00 0.00 0.00 99 1015.6
20260510103314 21 322 0.0 0.0 0.00 0.00 0.00 99 1015.7
20260510102810 21 328 0.0 0.0 0.00 0.00 0.00 99 1015.3
20260510102306 21 328 0.0 0.0 0.00 0.00 0.00 99 1015.4
20260510101803 21 330 0.0 0.0 0.00 0.00 0.00 99 1015.2
20260510101301 21 330 0.0 0.0 0.00 0.00 0.00 99 1015.4
20260510100756 21 330 0.0 0.0 0.00 0.00 0.00 99 1015.4
20260510100255 21 319 0.0 0.0 0.00 0.00 0.00 99 1015.6
20260510095750 21 312 0.0 0.0 0.00 0.00 0.00 99 1015.3
20260510095246 21 328 0.0 0.0 0.00 0.00 0.00 99 1015.2
20260510094745 21 336 0.0 0.0 0.00 0.00 0.00 99 1014.8
20260510094240 21 313 0.0 0.0 0.00 0.00 0.00 99 1015.1
20260510093737 21 310 0.0 0.0 0.00 0.00 0.00 99 1015.1
20260510093234 21 312 0.0 0.0 0.00 0.00 0.00 99 1015.2
20260510092730 21 319 0.0 0.0 0.00 0.00 0.00 99 1015.0
20260510092226 21 319 0.0 0.0 0.00 0.00 0.00 99 1015.0
20260510091722 21 319 0.0 0.0 0.00 0.00 0.00 99 1014.7
20260510091218 21 319 0.0 0.0 0.00 0.00 0.00 99 1014.6
20260510090715 21 319 0.0 0.0 0.00 0.00 0.00 99 1014.5
20260510090212 21 315 0.0 0.0 0.00 0.00 0.00 99 1014.8
20260510085707 21 311 0.0 0.0 0.00 0.00 0.00 99 1014.4
20260510085202 21 318 0.0 0.0 0.00 0.00 0.00 99 1014.4
20260510084658 21 318 0.0 0.0 0.00 0.00 0.00 99 1014.4
20260510084155 21 324 0.0 0.0 0.00 0.00 0.00 99 1014.3
20260510083652 21 322 0.0 0.0 0.00 0.00 0.00 99 1014.4
20260510083149 21 324 0.0 0.0 0.00 0.00 0.00 99 1014.4
20260510082644 21 328 0.0 0.0 0.00 0.00 0.00 99 1014.3
20260510082140 21 328 0.0 0.0 0.00 0.00 0.00 99 1014.3
20260510081635 21 333 0.0 0.0 0.00 0.00 0.00 99 1014.3
20260510081131 21 325 0.0 0.0 0.00 0.00 0.00 99 1014.2
20260510080625 21 325 0.0 0.0 0.00 0.00 0.00 99 1014.0
20260510080122 21 319 0.0 0.0 0.00 0.00 0.00 99 1014.3
20260510075620 21 319 0.0 0.0 0.00 0.00 0.00 99 1014.3
20260510075117 21 312 0.0 0.0 0.00 0.00 0.00 99 1014.6
20260510074613 21 319 0.0 0.0 0.00 0.00 0.00 99 1014.4
20260510074108 21 310 0.0 0.0 0.00 0.00 0.00 99 1014.3
20260510073600 21 310 0.0 0.0 0.00 0.00 0.00 99 1014.4
20260510073057 21 299 0.0 0.0 0.00 0.00 0.00 99 1014.5
20260510072554 21 299 0.0 0.0 0.00 0.00 0.00 99 1014.2
20260510072049 21 299 0.0 0.0 0.00 0.00 0.00 99 1014.3
20260510071545 21 319 0.0 0.0 0.00 0.00 0.00 99 1014.3
20260510071044 21 318 0.0 0.0 0.00 0.00 0.00 99 1014.1
20260510070540 21 318 0.0 0.0 0.00 0.00 0.00 99 1014.1
20260510070037 21 318 0.0 0.0 0.00 0.00 0.00 99 1014.1
20260510065533 21 318 0.0 0.0 0.00 0.00 0.00 99 1014.2
20260510065029 21 319 0.0 0.0 0.00 0.00 0.00 99 1014.1
20260510064526 22 319 0.0 0.0 0.00 0.00 0.00 99 1014.3
20260510064023 22 316 0.0 0.0 0.00 0.00 0.00 99 1014.1
20260510063520 22 314 0.0 0.0 0.00 0.00 0.00 99 1014.2
20260510063017 22 311 0.0 0.0 0.00 0.00 0.00 99 1014.5
20260510062512 22 311 0.0 0.0 0.00 0.00 0.00 99 1014.4
20260510062008 22 300 0.0 0.0 0.00 0.00 0.00 99 1014.6
20260510061505 22 300 0.0 0.0 0.00 0.00 0.00 99 1014.5
20260510061001 22 210 0.0 0.0 0.00 0.00 0.00 99 1014.5
20260510060459 22 34 0.0 0.0 0.00 0.00 0.00 99 1014.4
20260510055954 22 303 0.0 0.0 0.00 0.00 0.00 99 1014.6
20260510055450 22 341 0.0 0.0 0.00 0.00 0.00 99 1014.8
20260510054948 22 313 0.0 0.0 0.00 0.00 0.00 99 1014.8
20260510054443 22 189 0.0 0.0 0.00 0.00 0.00 99 1015.0
20260510053939 22 192 0.0 0.0 0.00 0.00 0.00 99 1015.0
20260510053434 22 325 0.0 0.0 0.00 0.00 0.00 99 1015.0
20260510052931 22 347 0.0 0.0 0.00 0.00 0.00 99 1015.0
20260510052426 22 34 0.0 0.0 0.00 0.00 0.00 99 1015.0
20260510051923 22 335 0.0 0.0 0.00 0.00 0.00 99 1015.0
20260510051420 22 219 0.0 0.0 0.00 0.00 0.00 99 1015.4
20260510050916 22 320 0.0 0.0 0.00 0.00 0.00 99 1015.5
20260510050413 21 209 0.0 0.0 0.00 0.00 0.00 99 1015.4
20260510045910 21 336 0.0 0.0 0.00 0.00 0.00 99 1015.7
20260510045407 21 311 0.0 0.0 0.00 0.00 0.00 99 1015.9
20260510044904 21 305 0.0 0.0 0.00 0.00 0.00 99 1015.7
20260510044401 21 316 0.0 0.0 0.00 0.00 0.00 99 1015.6
20260510043857 21 297 0.0 0.0 0.00 0.00 0.00 99 1015.9
20260510043353 21 309 0.0 0.0 0.00 0.00 0.00 99 1015.6
20260510042852 21 288 0.0 0.0 0.00 0.00 0.00 99 1015.6
20260510042347 21 328 0.0 0.0 0.00 0.00 0.00 99 1015.6
20260510041843 21 323 0.0 0.0 0.00 0.00 0.00 99 1015.7
20260510041341 21 323 0.0 0.0 0.00 0.00 0.00 99 1015.5
20260510040838 21 320 0.0 0.0 0.00 0.00 0.00 99 1015.6
20260510040334 21 311 0.0 0.0 0.00 0.00 0.00 99 1015.9
20260510035830 21 311 0.0 0.0 0.00 0.71 0.71 99 1015.7
20260510035326 21 318 0.0 0.0 0.00 0.71 0.71 99 1015.6
20260510034822 21 321 0.0 0.0 0.00 0.71 0.71 99 1015.6
20260510034320 21 328 0.0 0.0 0.00 0.71 0.71 99 1015.6
20260510033816 21 318 0.0 0.0 0.00 0.71 0.71 99 1015.8
20260510033313 21 328 0.0 0.0 0.00 0.71 0.71 99 1015.8
20260510032810 21 22 0.0 0.0 0.00 0.71 0.71 99 1015.8
20260510032306 21 329 0.0 0.0 0.00 0.71 0.71 99 1015.9
20260510031802 21 323 0.0 0.0 0.00 0.71 0.71 99 1015.9
20260510031258 21 323 0.0 0.0 0.00 0.71 0.71 99 1015.8
20260510030756 21 316 0.0 0.0 0.00 0.71 0.71 99 1015.8
20260510030254 21 303 0.0 0.0 0.00 0.71 0.71 99 1015.8
20260510025751 21 315 0.0 0.0 0.00 0.71 0.71 99 1015.7
20260510025249 21 317 0.0 0.0 0.00 0.71 0.71 99 1015.5
20260510024745 21 325 0.0 0.0 0.00 0.71 0.71 99 1015.5
20260510024242 21 320 0.0 0.0 0.00 0.71 0.71 99 1015.4
20260510023738 21 321 0.0 0.0 0.00 0.71 0.71 99 1015.4
20260510023229 21 313 0.0 0.0 0.00 0.71 0.71 99 1015.3
20260510022725 21 308 0.0 0.0 0.00 0.71 0.71 99 1015.0
20260510022225 21 320 0.0 0.0 0.00 0.71 0.71 99 1015.0
20260510021720 21 303 0.0 0.0 0.00 0.71 0.71 99 1015.1
20260510021218 21 307 0.0 0.0 0.00 0.71 0.71 99 1014.9
20260510020713 21 293 0.0 0.0 0.00 0.71 0.71 99 1014.8
20260510020208 21 317 0.0 0.0 0.00 0.71 0.71 99 1014.7
20260510015704 21 315 0.0 0.0 0.00 0.71 0.71 99 1014.6
20260510015201 21 305 0.0 0.0 0.00 0.71 0.71 99 1014.5
20260510014656 21 334 0.0 0.0 0.00 0.71 0.71 99 1014.6
20260510014154 21 335 0.0 0.0 0.00 0.71 0.71 99 1014.4
20260510013654 21 301 0.0 0.0 0.00 0.71 0.71 99 1014.3
20260510013150 21 309 0.0 0.0 0.00 0.71 0.71 99 1014.2
20260510012649 21 339 0.0 3.2 0.00 0.71 0.71 99 1014.4
20260510012145 21 318 0.0 0.0 0.00 0.71 0.71 98 1014.2
20260510011640 21 338 0.0 0.0 0.00 0.71 0.71 98 1014.0
20260510011136 21 338 0.0 0.0 0.00 0.71 0.71 98 1014.3
20260510010632 21 320 0.0 0.0 0.00 0.71 0.71 98 1014.4
20260510010130 21 303 0.0 0.0 0.00 0.71 0.71 98 1014.3
20260510005625 21 322 0.0 0.0 0.00 0.71 0.71 98 1014.2
20260510005123 21 327 0.0 0.0 0.00 0.71 0.71 98 1014.2
20260510004621 21 290 0.0 0.0 0.00 0.71 0.71 98 1014.6
20260510004119 21 319 0.0 0.0 0.00 0.71 0.71 98 1014.2
20260510003615 21 334 0.0 0.0 0.00 0.71 0.71 98 1014.3
20260510003111 21 335 0.0 0.0 0.00 0.71 0.71 98 1014.3
20260510002606 21 347 0.0 0.0 0.00 0.71 0.71 98 1014.3
20260510002103 21 319 0.0 0.0 0.00 0.71 0.71 98 1014.4
20260510001600 21 302 0.0 0.0 0.00 0.71 0.71 97 1014.5
20260510001059 21 313 0.0 0.0 0.18 0.71 0.71 97 1014.6
20260510000554 21 325 0.0 0.0 0.18 0.71 0.71 97 1014.5
20260510000051 21 284 0.0 0.0 0.00 0.69 0.69 97 1014.6
20260509235547 22 317 0.0 0.0 0.00 0.69 0.69 97 1014.8
20260509235044 22 319 1.6 3.2 0.00 0.69 0.69 97 1014.8
20260509234540 22 302 4.8 4.8 0.00 0.69 0.69 97 1014.8
20260509234038 22 319 0.0 0.0 0.00 0.69 0.69 97 1014.8
20260509233536 22 338 0.0 0.0 0.00 0.69 0.69 97 1014.7
20260509233033 22 329 0.0 0.0 0.00 0.69 0.69 97 1014.6
20260509232529 22 319 0.0 0.0 0.00 0.69 0.69 96 1014.7
20260509232026 22 316 1.6 3.2 0.00 0.69 0.69 97 1014.6
20260509231522 22 323 0.0 0.0 0.00 0.69 0.69 97 1014.6
20260509231021 22 324 0.0 0.0 0.00 0.69 0.69 97 1014.5
20260509230517 22 314 0.0 0.0 0.00 0.69 0.69 96 1014.6
20260509230015 22 327 0.0 0.0 0.00 0.69 0.69 96 1014.5
20260509225509 22 328 0.0 0.0 0.00 0.69 0.69 96 1014.3
20260509225005 22 328 0.0 0.0 0.00 0.69 0.69 96 1014.4
20260509224501 22 334 0.0 1.6 0.00 0.69 0.69 96 1014.5
20260509223957 22 325 0.0 1.6 0.00 0.69 0.69 96 1014.7
20260509223449 22 336 3.2 8.0 0.00 0.69 0.69 96 1014.5
20260509222946 22 348 4.8 4.8 0.00 0.69 0.69 96 1014.3
20260509222442 22 335 0.0 4.8 0.00 0.69 0.69 96 1014.2
20260509221938 22 309 0.0 0.0 0.00 0.69 0.69 96 1014.5
20260509221435 22 309 3.2 4.8 0.00 0.69 0.69 96 1014.6
20260509220930 22 359 4.8 8.0 0.00 0.69 0.69 96 1014.3
20260509220426 22 355 6.4 8.0 0.00 0.69 0.69 96 1014.4
20260509215923 21 347 9.7 11.3 0.00 0.69 0.69 96 1014.3
20260509215418 22 334 4.8 9.7 0.00 0.69 0.69 96 1014.4
20260509214916 22 354 14.5 16.1 0.00 0.69 0.69 96 1014.3
20260509214413 22 347 8.0 9.7 0.00 0.69 0.69 96 1014.2
20260509213910 22 334 3.2 9.7 0.00 0.69 0.69 96 1014.3
20260509213405 22 316 6.4 9.7 0.00 0.69 0.69 97 1014.3
20260509212903 22 17 4.8 4.8 0.00 0.69 0.69 97 1014.1
20260509212401 22 330 3.2 8.0 0.00 0.69 0.69 97 1014.1
20260509211857 22 358 3.2 8.0 0.00 0.69 0.69 97 1013.7
20260509211353 22 336 6.4 9.7 0.00 0.69 0.69 97 1013.8
20260509210849 22 338 1.6 3.2 0.00 0.69 0.69 97 1014.1
20260509210347 22 341 3.2 9.7 0.00 0.69 0.69 97 1014.0
20260509205846 22 303 4.8 8.0 0.00 0.69 0.69 97 1013.9
20260509205346 22 330 4.8 8.0 0.00 0.69 0.69 97 1013.7
20260509204843 22 337 6.4 11.3 0.00 0.69 0.69 97 1013.9
20260509204339 22 330 8.0 16.1 0.00 0.69 0.69 97 1013.9
20260509203836 22 284 8.0 16.1 0.00 0.69 0.69 97 1013.9
20260509203332 23 299 12.9 16.1 0.00 0.69 0.69 97 1013.7
20260509202829 23 332 6.4 14.5 0.00 0.69 0.69 97 1013.9
20260509202325 23 319 3.2 12.9 0.00 0.69 0.69 97 1013.7
20260509201824 23 310 3.2 4.8 0.00 0.69 0.69 97 1013.7
20260509201321 23 309 1.6 3.2 0.13 0.69 0.69 97 1013.8
20260509200818 23 249 4.8 8.0 0.61 0.69 0.69 98 1014.1
20260509200313 23 305 1.6 1.6 0.48 0.66 0.66 96 1013.9
20260509195810 23 317 0.0 1.6 0.00 0.58 0.58 96 1013.8
20260509195306 23 306 1.6 4.8 0.00 0.58 0.58 96 1013.5
20260509194805 22 267 1.6 3.2 0.00 0.58 0.58 96 1013.9
20260509194301 22 279 4.8 4.8 0.00 0.58 0.58 96 1013.8
20260509193758 22 304 1.6 4.8 0.18 0.58 0.58 95 1014.0
20260509193258 22 296 1.6 4.8 0.48 0.58 0.58 95 1013.7
20260509192754 22 269 6.4 11.3 1.98 0.56 0.56 95 1013.9
20260509192249 23 283 3.2 4.8 1.98 0.48 0.48 95 1014.3
20260509191745 23 311 1.6 4.8 0.13 0.18 0.18 95 1013.9
20260509191242 23 313 0.0 1.6 0.00 0.15 0.15 94 1014.1
20260509190738 23 319 0.0 1.6 0.00 0.15 0.15 94 1014.0
20260509190235 24 317 0.0 0.0 0.48 0.15 0.15 93 1014.3
20260509185732 25 310 1.6 3.2 0.79 0.15 0.15 92 1014.0
20260509185228 25 317 0.0 3.2 0.43 0.08 0.08 89 1013.8
20260509184726 26 306 3.2 4.8 0.13 0.03 0.03 86 1013.9
20260509184223 26 279 4.8 4.8 0.00 0.00 0.00 84 1014.0
20260509183719 26 308 1.6 8.0 0.00 0.00 0.00 83 1013.8
20260509183215 26 235 1.6 4.8 0.00 0.00 0.00 82 1014.0
20260509182710 26 7 0.0 1.6 0.00 0.00 0.00 82 1014.0
20260509182208 27 99 1.6 1.6 0.00 0.00 0.00 82 1013.9
20260509181706 27 259 3.2 4.8 0.00 0.00 0.00 81 1013.9
20260509181203 27 292 0.0 3.2 0.00 0.00 0.00 82 1013.9
20260509180700 26 141 1.6 4.8 0.00 0.00 0.00 81 1013.9
20260509180155 26 308 1.6 8.0 0.00 0.00 0.00 81 1014.1
20260509175652 27 244 6.4 8.0 0.00 0.00 0.00 80 1014.1
20260509175149 26 319 0.0 1.6 0.00 0.00 0.00 81 1014.2
20260509174645 27 284 4.8 8.0 0.00 0.00 0.00 81 1014.3
20260509174140 27 290 0.0 4.8 0.00 0.00 0.00 80 1014.1
20260509173637 26 70 1.6 3.2 0.00 0.00 0.00 81 1014.2
20260509173132 26 325 0.0 3.2 0.00 0.00 0.00 82 1014.3
20260509172629 26 136 1.6 4.8 0.00 0.00 0.00 83 1014.6
20260509172125 26 124 4.8 8.0 0.00 0.00 0.00 83 1014.5
20260509171621 26 119 4.8 8.0 0.00 0.00 0.00 82 1014.4
20260509171117 26 143 4.8 4.8 0.00 0.00 0.00 82 1014.4
20260509170614 26 312 0.0 8.0 0.00 0.00 0.00 83 1014.6
20260509170110 26 304 0.0 3.2 0.00 0.00 0.00 83 1014.3
20260509165609 26 261 3.2 3.2 0.00 0.00 0.00 83 1014.4
20260509165104 25 116 6.4 8.0 0.00 0.00 0.00 85 1014.3
20260509164600 25 219 1.6 3.2 0.00 0.00 0.00 85 1014.4
20260509164056 25 126 4.8 8.0 0.00 0.00 0.00 86 1014.5
20260509163555 25 337 0.0 3.2 0.00 0.00 0.00 85 1014.4
20260509163055 25 105 1.6 4.8 0.00 0.00 0.00 85 1014.6
20260509162552 25 280 1.6 3.2 0.00 0.00 0.00 86 1014.9
20260509162048 25 357 0.0 8.0 0.00 0.00 0.00 86 1014.6
20260509161545 25 330 0.0 3.2 0.00 0.00 0.00 86 1014.8
20260509161039 25 337 0.0 3.2 0.00 0.00 0.00 86 1014.7
20260509160535 25 347 3.2 4.8 0.00 0.00 0.00 86 1014.8
20260509160031 25 357 4.8 4.8 0.00 0.00 0.00 86 1014.8
20260509155527 25 15 0.0 1.6 0.00 0.00 0.00 86 1014.9
20260509155023 25 333 0.0 3.2 0.00 0.00 0.00 86 1014.7
20260509154520 25 108 4.8 4.8 0.00 0.00 0.00 85 1014.7
20260509154018 25 332 0.0 3.2 0.00 0.00 0.00 85 1014.6
20260509153515 25 108 1.6 3.2 0.00 0.00 0.00 84 1014.5
20260509153011 25 308 0.0 1.6 0.00 0.00 0.00 84 1014.6
20260509152507 25 310 0.0 1.6 0.00 0.00 0.00 86 1015.0
20260509152004 25 264 1.6 4.8 0.00 0.00 0.00 86 1014.8
20260509151500 24 178 1.6 3.2 0.00 0.00 0.00 86 1014.8
20260509150959 25 116 3.2 4.8 0.00 0.00 0.00 85 1014.7
20260509150455 25 284 1.6 3.2 0.00 0.00 0.00 85 1014.7
20260509145954 25 324 0.0 0.0 0.00 0.00 0.00 85 1014.8
20260509145449 25 297 0.0 1.6 0.00 0.00 0.00 85 1014.9
20260509144944 25 328 0.0 4.8 0.00 0.00 0.00 86 1015.0
20260509144442 25 285 1.6 3.2 0.00 0.00 0.00 86 1015.0
20260509143938 24 320 0.0 1.6 0.00 0.00 0.00 86 1015.2
20260509143436 24 183 3.2 8.0 0.00 0.00 0.00 87 1014.7
20260509142932 23 338 1.6 1.6 0.00 0.00 0.00 88 1014.8
20260509142429 24 12 0.0 0.0 0.00 0.00 0.00 88 1014.6
20260509141924 23 298 0.0 0.0 0.00 0.00 0.00 89 1014.6
20260509141421 23 331 0.0 1.6 0.00 0.00 0.00 90 1014.8
20260509140918 23 298 0.0 3.2 0.00 0.00 0.00 90 1014.8
20260509140414 23 272 0.0 1.6 0.00 0.00 0.00 91 1014.6
20260509135913 22 151 1.6 4.8 0.00 0.00 0.00 90 1015.0
20260509135410 23 301 0.0 1.6 0.00 0.00 0.00 91 1015.0
20260509134907 22 314 0.0 4.8 0.00 0.00 0.00 92 1015.0
20260509134405 22 244 3.2 3.2 0.00 0.00 0.00 92 1015.0
20260509133901 22 311 1.6 4.8 0.00 0.00 0.00 92 1014.9
20260509133358 22 337 1.6 4.8 0.00 0.00 0.00 93 1014.9
20260509132857 22 340 6.4 8.0 0.00 0.00 0.00 92 1014.8
20260509132354 22 313 3.2 4.8 0.00 0.00 0.00 92 1014.7
20260509131851 22 330 3.2 4.8 0.00 0.00 0.00 92 1014.5
20260509131348 22 319 3.2 4.8 0.00 0.00 0.00 91 1014.3
20260509130845 23 303 1.6 1.6 0.00 0.00 0.00 90 1014.5
20260509130340 22 263 1.6 3.2 0.00 0.00 0.00 91 1014.5
20260509125837 22 294 1.6 1.6 0.00 0.00 0.00 91 1014.3
20260509125333 22 310 1.6 1.6 0.00 0.00 0.00 92 1014.3
20260509124830 22 328 0.0 3.2 0.00 0.00 0.00 91 1014.2
20260509124327 22 310 0.0 1.6 0.00 0.00 0.00 92 1014.2
20260509123825 22 285 1.6 3.2 0.00 0.00 0.00 92 1014.3
20260509123322 22 310 0.0 1.6 0.00 0.00 0.00 92 1014.2
20260509122817 22 294 0.0 0.0 0.00 0.00 0.00 92 1014.0